Location: Buss�joux
(45.5500°N, 2.4667°E)
Time: 23:51:54
(UTC+00:00)

Daily predictions for brighter satellites

Satellite Brightness Start Highest point End
(mag) Time Altitude Azimuth Time Altitude Azimuth Time Altitude Azimuth
Cosmos 1174 4.3 16:36:54 10° NW 16:41:14 89° SW 16:46:40 10° SSE
Meteor PRIRODA 3.6 16:37:47 10° SSE 16:41:25 71° ENE 16:45:04 10° N
ERBS 4.2 16:42:41 10° SSE 16:44:40 16° SE 16:46:40 10° E
CZ-4C R/B 4.2 16:43:20 10° N 16:47:19 51° WNW 16:51:04 10° SSW
Cosmos 2221 3.5 16:45:14 10° SE 16:48:46 26° E 16:52:20 10° NNE
NOSS 2-1 (E) 3.5 16:45:52 10° SSW 16:49:00 39° ESE 16:52:05 10° NE
ISS -3.3 16:48:08 10° WSW 16:51:29 54° NNW 16:54:50 10° ENE
USA 81 4.5 16:48:21 10° SSW 16:53:35 69° W 16:58:51 10° N
CZ-2C R/B 3.9 16:50:29 10° NE 16:54:13 19° E 16:57:53 10° SE
USA 267 3.8 16:48:38 10° NE 16:54:55 51° NNW 17:01:11 10° W
Cosmos 1340 Rocket 4.2 16:53:12 10° NNE 16:56:04 18° ENE 16:58:54 10° ESE
Spot 1 4.4 16:51:40 10° NNE 16:56:09 79° WNW 17:00:53 10° SSW
AQUARIUS 4.3 16:53:50 10° SSE 16:58:10 52° ENE 17:02:32 10° N
RESURS DK-1 4.4 16:55:41 10° WSW 16:59:02 24° NW 17:02:25 10° N
Cosmos 1271 Rocket 2.7 16:56:14 10° S 17:00:04 63° E 17:04:00 10° NNE
USA 306 2.9 16:55:53 10° SW 17:00:07 72° SE 17:04:01 12° ENE
Lacrosse 5 rocket 3.0 16:57:32 10° WNW 17:00:27 21° NNW 17:03:30 10° NNE
Nadezhda 4 Rocket 4.4 16:54:45 10° N 17:00:40 41° ENE 17:06:35 10° SE
SMAP 3.0 17:00:34 10° SSE 17:05:12 72° ENE 17:09:51 10° N
ATLAS 2AS CENTAUR R/B 3.9 16:59:51 10° WSW 17:07:12 42° NW 17:14:21 10° NNE
CZ-4B DEB 4.2 17:03:04 10° SSE 17:08:31 62° ENE 17:13:58 10° N
Cosmos 1408 Rocket 3.9 17:04:30 10° N 17:08:36 40° ENE 17:12:43 10° SSE
Meteor 2-2 Rocket 4.4 17:04:23 10° S 17:10:19 62° E 17:16:15 10° NNE
Cosmos 1980 Rocket 3.9 17:09:10 10° NNE 17:11:31 12° NE 17:12:43 12° NE
Cosmos 1697 Rocket 4.0 17:07:33 10° N 17:11:34 19° NE 17:14:21 14° E
H-2A R/B 2.3 17:07:58 10° SE 17:12:59 45° ENE 17:17:52 10° N
Cosmos 1513 Rocket 4.4 17:09:02 10° S 17:15:04 73° E 17:21:12 10° NNE
USA 307 2.9 17:10:55 10° SW 17:15:12 83° SE 17:18:33 16° ENE
PAYLOAD B 4.3 17:10:17 10° SE 17:15:45 57° ENE 17:21:15 10° N
Cosmos 44 4.1 17:13:33 10° NNW 17:17:50 29° NE 17:20:56 15° E
ATLAS CENTAUR R/B 1.6 17:15:45 10° SW 17:19:47 71° NW 17:23:56 11° NNE
Cosmos 1777 Rocket 4.1 17:14:30 10° NNW 17:19:48 87° WSW 17:25:06 10° SSE
Cosmos 2034 Rocket 4.1 17:14:37 10° SSE 17:20:33 51° E 17:26:29 10° NNE
Cosmos 1939 Rocket 3.3 17:18:33 10° S 17:22:40 69° W 17:26:48 10° NNW
Lacrosse 5 2.0 17:17:57 10° NW 17:23:05 82° SW 17:28:11 10° SE
NOSS 3-1 (A) 4.5 17:17:39 10° NNW 17:24:23 40° NE 17:31:39 12° ESE
SKYMED 2 4.3 17:22:53 11° NNE 17:26:39 33° E 17:30:35 10° SSE
Cosmos 1898 Rocket 4.5 17:24:15 10° N 17:28:39 26° NE 17:31:16 18° E
NOSS 3-1 (C) 4.1 17:22:23 10° NNW 17:29:35 57° NE 17:38:04 10° ESE
Okean 3 Rocket 4.1 17:25:10 10° NNW 17:29:40 64° W 17:34:05 10° S
NOSS 2-1 (C) 3.2 17:26:36 10° SW 17:29:51 59° NW 17:32:11 17° NNE
Cosmos 1656 3.9 17:26:02 10° NNW 17:31:18 43° ENE 17:36:36 10° SE
MOS 1-B Rocket 4.1 17:26:08 10° NNE 17:31:42 52° E 17:37:45 10° S
CZ-2D R/B 3.1 17:30:23 10° SSE 17:34:13 76° ENE 17:38:05 10° N
GEOS 3 Rocket 3.6 17:29:28 10° SE 17:34:41 65° NE 17:39:50 10° NNW
Cosmos 1862 4.4 17:31:00 10° NNW 17:34:50 48° W 17:38:40 10° SSW
PSLV R/B 3.6 17:32:28 10° SSE 17:36:08 84° WSW 17:39:51 10° NNW
MOS 1-B 4.3 17:30:33 10° SSE 17:36:18 77° ENE 17:42:06 10° NNW
Cosmos 1461 4.0 17:32:17 10° WSW 17:36:19 41° NW 17:39:49 12° NNE
Meteor 1-20 Rocket 4.5 17:30:45 10° N 17:36:19 46° ENE 17:41:54 10° SSE
USA 308 3.0 17:33:03 10° WSW 17:37:18 72° NNW 17:39:45 24° NE
NOSS 2-1 (D) 3.6 17:35:57 10° WSW 17:39:08 46° NW 17:41:11 19° NNE
SL-08 RB Rocket 4.4 17:35:12 10° SE 17:39:18 31° ENE 17:43:24 10° N
Cosmos 1500 Rocket 3.6 17:37:48 10° N 17:42:12 53° ENE 17:46:31 10° SSE
SJ 16-02 1.7 17:40:14 10° NNW 17:44:36 65° WSW 17:48:54 10° S
Cosmos 1634 Rocket 4.4 17:43:13 10° SSE 17:49:02 41° E 17:54:54 10° NNE
Cosmos 1842 Rocket 3.7 17:47:23 10° SSW 17:51:49 77° W 17:56:18 10° N
Cosmos 1805 Rocket 3.9 17:48:22 10° N 17:52:29 40° ENE 17:56:33 10° SE
CZ-4B R/B 3.1 17:48:02 10° SSE 17:53:33 80° ENE 17:58:58 10° NNW
CZ-4C R/B 3.9 17:48:37 10° NNW 17:54:06 25° NNE 17:56:09 23° NE
CZ-4 R/B 3.5 18:00:41 14° NNE 18:00:41 14° NNE 18:01:24 10° N
ATLAS 5 CENTAUR R/B 3.6 17:50:09 10° NW 17:57:44 26° N 17:58:53 24° NNE
TIMED 4.4 17:53:23 10° SSW 17:57:44 73° ESE 17:59:55 29° NNE
Cosmos 1833 Rocket 3.3 17:52:49 10° S 17:57:50 35° ESE 17:58:46 32° E
YAOGAN 3 4.4 17:55:22 10° SSE 17:59:42 70° ENE 18:04:03 10° N
Cosmos 1606 4.4 18:02:47 10° SW 18:06:12 33° WNW 18:09:38 10° N
Meteor 1-25 Rocket 4.0 18:02:38 10° N 18:08:13 76° ENE 18:13:46 10° SSE
USA 305 3.6 18:04:19 10° W 18:08:22 45° NNW 18:09:32 35° NNE
Cosmos 2026 Rocket 3.9 18:02:52 10° N 18:09:01 64° ENE 18:15:04 10° SSE
Cosmos 2195 Rocket 4.3 18:04:11 10° N 18:10:20 77° E 18:16:30 10° SSE
USA 276 3.4 18:08:10 10° WNW 18:10:26 32° NNW 18:10:26 32° NNW
Sich 1 4.4 18:07:24 10° N 18:09:17 24° NNE 18:09:17 24° NNE
Okean O Rocket 1.6 18:07:56 10° SSE 18:12:22 85° WSW 18:16:52 10° NNW
ARGOS 3.1 18:08:04 10° SSE 18:13:30 90° SSE 18:18:58 10° NNW
COSMO-SKYMED 1 2.6 18:11:30 17° N 18:14:51 78° WNW 18:19:11 10° SSW
Spot 2 4.5 18:11:28 13° SE 18:15:46 57° ENE 18:20:50 10° N
ATLAS CENTAUR R/B 2.7 18:08:01 10° SW 18:17:59 69° SE 18:19:17 49° ENE
ERBS 3.0 18:17:06 10° WSW 18:19:49 50° WNW 18:19:49 50° WNW
Cosmos 1782 4.3 18:17:08 10° S 18:18:52 24° SSE 18:18:52 24° SSE
Cosmos 1937 Rocket 3.8 18:16:22 10° NNW 18:21:06 47° NE 18:21:06 47° NE
Cosmos 2221 4.4 18:22:31 10° SW 18:26:14 28° WNW 18:29:58 10° NNW
Cosmos 1763 Rocket 3.2 18:22:34 10° SSW 18:27:37 81° ESE 18:28:44 55° NNE
ISS -1.8 18:25:47 10° WNW 18:27:49 24° NNW 18:27:49 24° NNW
Cosmos 1340 Rocket 4.2 18:28:52 10° NNW 18:32:40 39° W 18:36:27 10° SSW
Cosmos 1933 3.6 18:28:59 10° SSW 18:33:02 68° W 18:33:24 63° NW
YAOGAN 1 4.0 18:35:36 26° N 18:35:36 26° N 18:37:33 10° N
CZ-2C R/B 3.1 18:29:45 10° N 18:34:56 59° WNW 18:40:00 10° SSW
USA 267 4.3 18:35:05 27° NNE 18:37:07 33° N 18:42:48 10° WNW
Meteor 2-21 4.3 18:31:51 10° N 18:38:00 88° W 18:44:04 10° S
Feng Yun 1-1 Rocket 4.4 18:32:38 10° SSE 18:38:34 84° WSW 18:44:32 10° NNW
Cosmos 2369 4.2 18:33:43 10° NNW 18:38:07 43° NNE 18:38:07 43° NNE
Landsat 5 4.1 18:38:53 40° NNW 18:40:05 55° WNW 18:44:08 10° SSW
USA 306 4.1 18:36:22 10° W 18:40:01 34° NNW 18:40:01 34° NNW
Lacrosse 5 rocket 3.7 18:38:18 10° NW 18:39:29 14° NNW 18:39:29 14° NNW
Cosmos 990 Rocket 4.3 18:36:47 10° NNW 18:41:57 64° WSW 18:46:44 12° S
H-2A R/B 4.2 18:48:13 10° SSW 18:52:34 26° W 18:56:51 10° NW
USA 229 DEB 3.8 18:45:13 10° NW 18:52:35 86° NE 18:54:57 50° SE
USA 229 3.8 18:45:18 10° NW 18:52:41 85° NE 18:54:59 51° SE
USA 307 4.5 18:51:35 10° W 18:54:34 29° NW 18:54:34 29° NW
Cosmos 1697 Rocket 2.6 18:50:38 10° NNW 18:56:10 84° W 18:56:10 84° W
SL-16 R/B 4.5 18:52:39 10° N 18:53:08 12° N 18:53:08 12° N
Cosmos 1980 Rocket 3.3 18:51:19 10° NNW 18:54:31 32° N 18:54:31 32° N
COSMOS 2455 4.0 18:51:36 10° S 18:54:37 29° S 18:54:37 29° S
COSMOS 2406 3.4 18:52:30 10° SSW 18:57:18 63° S 18:57:18 63° S
Cosmos 44 4.1 18:54:41 10° NW 18:59:14 44° WSW 18:59:26 44° SW
ATLAS CENTAUR R/B 3.9 18:57:01 10° WNW 18:59:32 15° NNW 19:00:04 15° NNW
Cosmos 2082 Rocket 3.9 18:56:25 10° S 18:58:13 21° S 18:58:13 21° S
Cosmos 2142 Rocket 4.4 18:57:20 10° S 19:03:27 84° W 19:04:23 66° N
Cosmos 1898 Rocket 4.3 19:05:55 10° NNW 19:10:59 49° WSW 19:11:39 46° SW
NOSS 3-1 (A) 4.3 19:08:20 10° NW 19:15:54 70° WSW 19:19:12 41° SSE
Cosmos 2279 Rocket 4.4 19:21:53 10° SSW 19:28:01 59° WNW 19:28:11 59° WNW
Cosmos 1833 Rocket 4.0 19:36:25 10° SW 19:40:32 36° W 19:40:32 36° W
CZ-4C R/B 3.6 19:36:46 10° NW 19:41:21 44° NNW 19:41:21 44° NNW
